FW9878 Weather Reports


Display with metric or nautical units.
time (UTC)temp
F
wind
direction
speed
MPH
gust
MPH
rain 1hr
in
rain 24hr
in
rain mn
in
humidity
%
barometer
mb
20260504081529 58 0 0.0 0.0 0.00 0.01 0.00 81 1008.4
20260504050120 62 131 1.0 5.0 0.00 0.01 0.00 69 1008.0
20260504044532 62 275 1.0 4.0 0.00 0.01 0.01 68 1008.5
20260504043031 62 147 1.0 3.0 0.00 0.01 0.01 68 1008.9
20260504041528 62 257 1.0 6.0 0.00 0.01 0.01 68 1009.1
20260504040032 62 175 1.0 5.0 0.00 0.01 0.01 68 1009.2
20260504034539 61 185 1.0 3.0 0.00 0.01 0.01 68 1009.3
20260504033110 61 213 1.0 4.0 0.00 0.01 0.01 67 1009.4
20260504033031 61 213 1.0 4.0 0.00 0.01 0.01 67 1009.4
20260504031530 62 171 1.0 4.0 0.00 0.01 0.01 66 1009.4
20260504030054 62 147 1.0 4.0 0.00 0.01 0.01 65 1009.5
20260504024530 63 192 1.0 4.0 0.00 0.01 0.01 63 1009.5
20260504023110 63 154 1.0 3.0 0.00 0.01 0.01 62 1009.6
20260504023028 63 154 1.0 3.0 0.00 0.01 0.01 62 1009.6
20260504021532 64 193 2.0 6.0 0.00 0.01 0.01 60 1009.4
20260504020035 65 174 2.0 7.0 0.00 0.01 0.01 58 1009.2
20260504014528 65 169 2.0 6.0 0.00 0.01 0.01 56 1009.2
20260504013028 66 194 2.0 4.0 0.00 0.01 0.01 55 1009.1
20260504011530 67 165 2.0 7.0 0.00 0.01 0.01 54 1009.0
20260504010027 68 190 2.0 5.0 0.00 0.01 0.01 53 1009.0
20260504004529 69 147 1.0 5.0 0.00 0.01 0.01 51 1009.0
20260504003031 71 198 2.0 6.0 0.00 0.01 0.01 49 1009.0
20260504001530 73 164 2.0 6.0 0.00 0.01 0.01 47 1009.2
20260504000030 74 166 2.0 7.0 0.00 0.01 0.01 45 1009.0
20260503234625 74 146 2.0 9.0 0.00 0.01 0.01 44 1009.2
20260503234533 74 146 2.0 9.0 0.00 0.01 0.01 44 1009.2
20260503233029 75 149 4.0 11.0 0.00 0.01 0.01 42 1009.3
20260503231543 76 273 3.0 8.0 0.00 0.01 0.01 42 1009.3
20260503230030 76 148 2.0 8.0 0.00 0.01 0.01 42 1009.4
20260503224536 76 259 4.0 9.0 0.00 0.01 0.01 42 1009.5
20260503223028 75 183 3.0 12.0 0.00 0.01 0.01 41 1009.6
20260503221529 75 167 3.0 12.0 0.00 0.01 0.01 41 1009.6
20260503220035 75 126 5.0 12.0 0.00 0.01 0.01 40 1009.6
20260503214531 75 144 4.0 12.0 0.00 0.01 0.01 43 1009.7
20260503213123 75 202 5.0 15.0 0.00 0.01 0.01 40 1009.8
20260503213047 75 202 5.0 15.0 0.00 0.01 0.01 40 1009.8
20260503211538 74 140 6.0 13.0 0.00 0.01 0.01 41 1010.2
20260503210029 74 244 6.0 15.0 0.00 0.01 0.01 42 1010.2
20260503204549 73 160 5.0 13.0 0.00 0.01 0.01 42 1010.8
20260503203030 73 195 7.0 16.0 0.00 0.01 0.01 42 1011.0
20260503201530 72 198 7.0 19.0 0.00 0.01 0.01 41 1011.2
20260503200030 72 147 6.0 14.0 0.00 0.01 0.01 43 1011.7
20260503194529 72 191 5.0 14.0 0.00 0.01 0.01 41 1012.4
20260503193108 71 140 7.0 14.0 0.00 0.01 0.01 42 1012.8
20260503193031 71 140 7.0 14.0 0.00 0.01 0.01 42 1012.8
20260503191610 71 187 6.0 14.0 0.00 0.01 0.01 44 1013.4
20260503191528 71 187 6.0 14.0 0.00 0.01 0.01 44 1013.4
20260503190027 70 136 6.0 17.0 0.00 0.01 0.01 45 1013.5
20260503184639 69 142 5.0 14.0 0.00 0.01 0.01 43 1014.2
20260503184533 69 142 5.0 14.0 0.00 0.01 0.01 43 1014.2
20260503183038 69 208 5.0 10.0 0.00 0.01 0.01 44 1014.7
20260503181532 69 270 2.0 12.0 0.00 0.01 0.01 45 1015.2
20260503180035 68 115 4.0 10.0 0.00 0.01 0.01 45 1015.6
20260503174553 67 329 5.0 13.0 0.00 0.05 0.01 47 1015.9
20260503173028 67 86 4.0 12.0 0.00 0.05 0.01 46 1016.3
20260503171535 66 137 6.0 10.0 0.00 0.05 0.01 47 1016.4